This demonstration page uses our WeatherBlox Daily Observations layout. Learn more.

Left ArrowRight Arrow

39.95238, -75.16362

Hourly Observations for June 16, 2022

Temp ( °F °C ) Dew Point ( °F °C ) Humidity (%) Winds ( mph kmh ) Pressure ( in mb ) Visibility ( mi km ) Precip ( " mm )
12:54 am 00:54 Cloudy 69 20.6 61 16.1 76 76 ESE 8 13 30.16 1022 10 16 0.00 0.00
1:54 am 01:54 Cloudy 69 20.6 61 16.1 76 76 SE 6 9 30.15 1021 10 16 0.00 0.00
2:54 am 02:54 Cloudy 69 20.6 61 16.1 76 76 ESE 6 9 30.16 1021 10 16 0.00 0.00
3:54 am 03:54 Cloudy 69 20.6 61 16.1 76 76 SSE 3 6 30.15 1021 10 16 0.00 0.00
4:54 am 04:54 Cloudy 70 21.1 61 16.1 73 73 S 8 13 30.14 1021 10 16 0.00 0.00
5:38 am 05:38 Cloudy with Thunderstorms 70 21.1 62 16.7 76 76 SSE 5 7 30.15 1021 10 16 0.00 0.00
5:54 am 05:54 Cloudy with Thunderstorms 70 21.1 62 16.7 76 76 SE 5 7 30.16 1021 10 16 0.00 0.00
6:18 am 06:18 Cloudy 70 21.1 62 16.7 76 76 SSE 3 6 30.16 1021 10 16 0.00 0.00
6:54 am 06:54 Cloudy with Nearby Thunderstorms 70 21.1 63 17.2 79 79 Calm 30.18 1022 10 16 0.01 0.25
7:00 am 07:00 Cloudy with Rain 69 20.6 63 17.2 81 81 ESE 9 15 30.16 1021 5 8 0.00 0.00
7:03 am 07:03 Cloudy with Strong Thunderstorms 68 20 63 17.2 84 84 ESE 10 17 30.17 1022 4 6 0.06 1.52
7:10 am 07:10 Cloudy with Thunderstorms 69 20.6 64 17.8 84 84 Calm 30.19 1022 5 8 0.07 1.78
7:13 am 07:13 Cloudy with Thunderstorms 69 20.6 64 17.8 84 84 E 6 9 30.18 1022 7 11 0.08 2.03
7:30 am 07:30 Cloudy with Thunderstorms 68 20 64 17.8 87 87 ENE 7 11 30.19 1022 5 8 0.08 2.03
7:40 am 07:40 Cloudy with Thunderstorms 68 20 64 17.8 87 87 SE 6 9 30.18 1022 3 5 0.08 2.03
7:49 am 07:49 Cloudy with Thunderstorms 68 20 64 18 88 88 NE 6 9 30.21 1023 1 2 0.10 2.54
7:54 am 07:54 Cloudy with Strong Thunderstorms 68 20 65 18.3 90 90 E 6 9 30.19 1023 3 5 0.12 3.05
8:06 am 08:06 Cloudy with Thunderstorms 68 20 64 17.8 87 87 E 10 17 30.20 1023 7 11 0.06 1.52
8:19 am 08:19 Cloudy with Light Rain 68 20 65 18.3 90 90 E 12 19 30.21 1023 10 16 0.06 1.52
8:38 am 08:38 Cloudy with Thunderstorms 68 20 65 18.3 90 90 E 9 15 30.22 1023 10 16 0.06 1.52
8:54 am 08:54 Cloudy with Thunderstorms 67 19.4 64 17.8 91 91 ENE 12 19 30.23 1024 10 16 0.06 1.52
9:15 am 09:15 Cloudy with Rain 66 18.9 63 17.2 90 90 ENE 13 20 30.23 1024 4 6 0.02 0.51
9:26 am 09:26 Cloudy with Nearby Thunderstorms 67 19.4 63 17.2 87 87 E 14 22 30.21 1023 7 11 0.04 1.02
9:31 am 09:31 Cloudy with Nearby Thunderstorms 67 19.4 63 17.2 87 87 E 14 22 30.20 1023 8 13 0.05 1.27
9:42 am 09:42 Cloudy 67 19.4 64 17.8 91 91 ESE 12 19 30.19 1022 10 16 0.05 1.27
9:54 am 09:54 Cloudy 68 20 64 17.8 87 87 SE 10 17 30.17 1022 10 16 0.05 1.27
10:54 am 10:54 Cloudy 70 21.1 63 17.2 79 79 S 12 19 30.16 1021 10 16 0.00 0.00
11:54 am 11:54 Cloudy 71 21.7 62 16.7 73 73 S 13 20 30.16 1021 10 16 0.00 0.00
12:54 pm 12:54 Cloudy 72 22.2 63 17.2 73 73 S 13 20 30.12 1020 10 16 0.00 0.00
1:54 pm 13:54 Cloudy 76 24.4 62 16.7 62 62 SSW 14 22 30.09 1019 10 16 0.00 0.00
2:54 pm 14:54 Cloudy 77 25 63 17.2 62 62 S 13 20 30.07 1018 10 16 0.00 0.00
3:54 pm 15:54 Cloudy 77 25 64 17.8 64 64 SSW 10 17 30.05 1018 10 16 0.00 0.00
4:54 pm 16:54 Cloudy 77 25 65 18.3 66 66 S 10 17 30.01 1016 10 16 0.00 0.00
5:54 pm 17:54 Cloudy 77 25 67 19.4 71 71 SSE 7 11 29.98 1015 10 16 0.00 0.00
6:54 pm 18:54 Cloudy 77 25 67 19.4 71 71 S 8 13 29.99 1016 10 16 0.00 0.00
7:54 pm 19:54 Cloudy 76 24.4 65 18.3 69 69 SSE 10 17 30.00 1016 10 16 0.00 0.00
8:54 pm 20:54 Cloudy 74 23.3 65 18.3 74 74 SSE 6 9 29.98 1015 10 16 0.00 0.00
9:43 pm 21:43 Cloudy 73 22.8 64 17.8 74 74 S 13 20 29.95 1014 10 16 0.00 0.00
9:54 pm 21:54 Cloudy 73 22.8 65 18.3 76 76 S 10 17 29.96 1014 10 16 0.00 0.00
10:54 pm 22:54 Cloudy 74 23.3 66 18.9 76 76 S 8 13 29.95 1014 10 16 0.00 0.00
11:21 pm 23:21 Cloudy 74 23.3 66 18.9 76 76 SSE 8 13 29.92 1013 10 16 0.00 0.00
11:54 pm 23:54 Cloudy 73 22.8 66 18.9 79 79 NW 12 19 29.96 1015 10 16 0.00 0.00

Powered by AerisWeather